Temp
-11 -11 -11 -11 -12 -12 -11 -11 -11 -11 -12 -12 -12 -12 -12 -12 -11 -11 -12 -11 -12 -12 -11 -11 -11 -11 -11 -11 -12 -13 -12 -12 -12 -12 -13 -13 -13 -13 -14 -13 -13 -13 -13
-12 -12 -12 -12 -12 -12 -12 -12 -12 -12 -12 -12 -12 -12 -12 -12 -12 -12 -11 -12 -12 -12 -12 -12 -12 -12 -13 -13 -13 -13 -13 -13 -13 -13 -14 -14 -14 -14 -14 -14 -14 -14 -14
-12 -12 -12 -12 -12 -12 -12 -12 -12 -12 -12 -12 -12 -12 -12 -12 -12 -12 -12 -12 -13 -12 -12 -12 -13 -13 -13 -13 -13 -14 -14 -14 -14 -14 -14 -14 -14 -14 -15 -15 -14 -14 -14
-12 -12 -12 -12 -12 -12 -12 -12 -12 -12 -12 -12 -12 -13 -13 -13 -13 -13 -13 -13 -12 -13 -13 -13 -13 -14 -14 -14 -14 -14 -14 -15 -15 -15 -15 -15 -15 -15 -15 -15 -15 -15 -15
-12 -13 -13 -13 -13 -13 -13 -13 -13 -13 -12 -12 -13 -13 -13 -13 -13 -13 -13 -13 -13 -13 -13 -14 -14 -14 -15 -15 -15 -15 -15 -15 -15 -15 -16 -16 -16 -16 -16 -16 -16 -16 -16
-13 -13 -13 -13 -13 -13 -13 -13 -13 -13 -13 -13 -13 -13 -13 -14 -14 -14 -14 -14 -14 -14 -14 -14 -14 -15 -16 -16 -16 -16 -16 -16 -16 -17 -17 -17 -18 -18 -18 -17 -17 -17 -17
-13 -13 -13 -13 -13 -13 -13 -13 -13 -13 -13 -13 -14 -14 -14 -14 -14 -14 -14 -14 -14 -15 -15 -15 -15 -15 -16 -16 -16 -17 -17 -17 -18 -18 -18 -18 -18 -18 -18 -18 -18 -18 -17
-14 -13 -14 -14 -13 -14 -13 -13 -13 -13 -14 -14 -14 -14 -14 -15 -15 -15 -15 -15 -15 -15 -16 -16 -16 -16 -16 -16 -16 -17 -18 -18 -18 -18 -18 -18 -18 -18 -18 -18 -19 -18 -18
-14 -14 -14 -14 -14 -14 -14 -14 -14 -14 -14 -14 -15 -15 -15 -15 -15 -15 -15 -16 -16 -16 -16 -16 -17 -17 -17 -17 -17 -18 -18 -18 -18 -18 -19 -20 -20 -20 -20 -20 -19 -19 -19
-14 -14 -14 -14 -14 -14 -14 -14 -14 -14 -14 -15 -15 -15 -15 -16 -15 -15 -16 -16 -16 -17 -17 -17 -17 -17 -18 -18 -18 -18 -19 -19 -19 -19 -20 -21 -21 -21 -21 -20 -20 -20 -20
-14 -14 -15 -15 -15 -15 -15 -15 -15 -15 -15 -15 -15 -16 -16 -16 -16 -16 -16 -16 -17 -17 -17 -17 -18 -18 -18 -18 -19 -19 -19 -19 -19 -20 -20 -20 -21 -21 -21 -21 -21 -20 -20
-14 -14 -15 -15 -15 -15 -15 -15 -15 -15 -15 -15 -15 -16 -16 -17 -17 -16 -17 -17 -17 -17 -18 -18 -18 -19 -19 -19 -19 -19 -19 -19 -19 -20 -21 -21 -22 -22 -22 -22 -21 -21 -21
-15 -14 -15 -15 -15 -15 -15 -16 -16 -16 -16 -16 -16 -17 -17 -17 -17 -17 -17 -18 -18 -18 -19 -19 -19 -19 -19 -19 -19 -20 -20 -21 -21 -21 -21 -22 -22 -22 -22 -22 -22 -22 -22
-14 -14 -14 -15 -15 -16 -16 -15 -16 -16 -16 -16 -16 -17 -18 -18 -17 -17 -18 -19 -19 -19 -19 -19 -19 -20 -20 -20 -20 -20 -21 -22 -22 -22 -22 -22 -22 -22 -22 -22 -22 -22 -22
-14 -15 -15 -15 -15 -15 -15 -15 -15 -15 -16 -16 -17 -17 -18 -18 -18 -18 -19 -19 -19 -19 -20 -19 -20 -20 -20 -20 -20 -21 -22 -22 -23 -23 -23 -22 -22 -22 -22 -22 -22 -22 -22
-14 -15 -15 -15 -15 -15 -15 -15 -16 -16 -16 -17 -17 -18 -18 -18 -19 -19 -20 -19 -19 -20 -20 -20 -20 -20 -20 -21 -21 -22 -23 -23 -23 -23 -23 -23 -23 -23 -23 -23 -23 -23 -23
-14 -15 -15 -15 -15 -16 -16 -16 -16 -16 -17 -17 -17 -17 -19 -19 -19 -20 -20 -20 -20 -20 -21 -21 -21 -21 -21 -21 -22 -23 -23 -23 -23 -23 -23 -23 -23 -23 -23 -23 -23 -23 -23
-15 -16 -16 -16 -16 -16 -16 -15 -16 -17 -17 -17 -18 -19 -19 -20 -20 -20 -20 -21 -21 -21 -21 -21 -21 -21 -21 -21 -22 -22 -23 -23 -23 -23 -23 -24 -24 -24 -24 -24 -24 -24 -24
-16 -16 -16 -16 -16 -16 -16 -16 -17 -17 -18 -18 -19 -19 -20 -20 -20 -21 -21 -22 -22 -22 -21 -21 -21 -21 -22 -22 -23 -23 -23 -23 -23 -24 -24 -25 -25 -25 -24 -25 -26 -26 -26
-17 -17 -17 -17 -17 -16 -17 -17 -17 -17 -18 -18 -20 -20 -20 -21 -21 -22 -22 -22 -22 -22 -22 -22 -22 -22 -22 -23 -23 -24 -24 -24 -24 -25 -25 -25 -25 -26 -27 -27 -28 -29 -29
-17 -17 -17 -17 -17 -17 -17 -17 -17 -17 -18 -19 -20 -20 -20 -22 -22 -22 -22 -22 -22 -22 -22 -22 -22 -23 -24 -24 -24 -24 -24 -24 -25 -26 -26 -27 -27 -28 -29 -30 -30 -30 -30
-18 -18 -18 -17 -17 -18 -18 -18 -18 -19 -19 -20 -20 -20 -22 -22 -22 -23 -22 -22 -22 -22 -22 -23 -23 -24 -24 -25 -25 -25 -25 -26 -26 -27 -28 -28 -30 -30 -31 -31 -31 -31 -31
-18 -18 -18 -18 -18 -18 -17 -18 -19 -20 -20 -20 -21 -21 -22 -23 -23 -23 -23 -23 -23 -23 -23 -24 -24 -25 -25 -26 -26 -26 -27 -27 -28 -29 -29 -30 -32 -32 -32 -32 -32 -31 -31
-18 -18 -18 -18 -18 -18 -18 -19 -20 -20 -21 -21 -22 -23 -23 -23 -23 -24 -23 -23 -23 -24 -25 -25 -25 -26 -26 -26 -27 -27 -28 -28 -29 -31 -31 -31 -32 -32 -32 -32 -32 -32 -31
-18 -19 -19 -18 -18 -18 -19 -20 -21 -21 -22 -22 -23 -23 -23 -24 -24 -23 -23 -23 -24 -25 -25 -26 -26 -26 -27 -27 -28 -28 -29 -30 -31 -31 -31 -32 -32 -31 -31 -32 -32 -32 -31
-21 -21 -20 -19 -19 -20 -21 -21 -22 -22 -23 -24 -24 -24 -24 -23 -23 -24 -24 -24 -25 -25 -26 -26 -27 -27 -27 -28 -29 -30 -31 -31 -32 -31 -32 -32 -31 -31 -31 -31 -31 -31 -31
Height
5802 5802 5802 5801 5801 5801 5801 5801 5801 5800 5800 5799 5798 5797 5795 5793 5791 5791 5789 5787 5784 5781 5778 5774 5771 5769 5767 5765 5764 5763 5761 5760 5759 5757 5755 5754 5753 5752 5752 5751 5752 5753 5754
5795 5795 5795 5795 5795 5795 5795 5794 5794 5793 5793 5792 5791 5790 5788 5785 5783 5781 5781 5779 5774 5771 5768 5764 5762 5760 5758 5758 5757 5754 5752 5750 5749 5748 5746 5744 5743 5743 5742 5741 5741 5742 5744
5788 5787 5787 5787 5787 5787 5787 5787 5786 5786 5785 5784 5783 5782 5779 5777 5776 5774 5770 5768 5766 5761 5759 5755 5752 5750 5748 5748 5747 5745 5743 5741 5738 5737 5734 5732 5731 5731 5730 5729 5728 5730 5732
5779 5779 5779 5779 5779 5778 5778 5778 5777 5777 5776 5776 5775 5773 5770 5768 5767 5764 5761 5758 5755 5753 5748 5745 5742 5740 5737 5736 5735 5734 5731 5730 5727 5724 5722 5719 5717 5716 5715 5715 5716 5716 5718
5771 5770 5770 5770 5770 5770 5769 5768 5767 5767 5767 5766 5765 5763 5761 5759 5758 5755 5751 5748 5744 5741 5739 5735 5732 5729 5727 5725 5723 5721 5719 5716 5712 5709 5707 5704 5702 5701 5700 5699 5701 5702 5703
5763 5762 5762 5761 5760 5761 5760 5759 5758 5758 5757 5756 5755 5753 5751 5749 5747 5744 5740 5738 5734 5730 5728 5725 5724 5720 5716 5714 5711 5707 5705 5701 5697 5694 5691 5688 5687 5685 5685 5684 5685 5686 5688
5753 5753 5752 5751 5751 5751 5750 5750 5749 5748 5747 5746 5745 5743 5740 5738 5736 5732 5729 5726 5723 5719 5716 5713 5710 5709 5708 5703 5700 5697 5693 5688 5683 5679 5676 5674 5672 5670 5670 5669 5669 5671 5673
5743 5743 5742 5742 5741 5741 5740 5740 5739 5738 5737 5736 5734 5732 5730 5728 5724 5720 5717 5714 5711 5708 5706 5702 5700 5697 5695 5692 5688 5684 5679 5675 5671 5667 5662 5659 5657 5655 5654 5654 5654 5654 5657
5733 5734 5732 5732 5731 5730 5730 5729 5728 5727 5726 5725 5723 5720 5716 5713 5711 5709 5705 5703 5699 5696 5694 5691 5689 5686 5682 5679 5675 5670 5666 5662 5659 5654 5649 5645 5641 5639 5638 5638 5637 5638 5641
5723 5722 5722 5721 5720 5719 5719 5718 5717 5717 5715 5714 5712 5708 5704 5701 5697 5696 5694 5690 5687 5684 5680 5679 5677 5673 5670 5667 5663 5657 5654 5651 5646 5640 5636 5631 5628 5626 5624 5624 5623 5624 5626
5711 5711 5710 5709 5709 5709 5708 5707 5706 5705 5704 5702 5699 5696 5692 5689 5685 5682 5679 5680 5675 5671 5668 5666 5663 5661 5657 5654 5650 5644 5641 5639 5634 5627 5624 5621 5619 5616 5613 5611 5610 5610 5611
5699 5699 5698 5698 5698 5697 5697 5696 5695 5693 5691 5688 5685 5682 5679 5676 5673 5670 5667 5664 5661 5660 5655 5652 5650 5647 5644 5641 5638 5631 5629 5624 5619 5614 5612 5610 5607 5606 5604 5602 5600 5599 5599
5687 5686 5686 5686 5686 5686 5685 5683 5682 5680 5677 5674 5672 5668 5665 5663 5660 5656 5653 5650 5647 5645 5642 5638 5636 5632 5629 5626 5623 5617 5615 5610 5606 5603 5599 5597 5595 5594 5593 5592 5590 5589 5588
5675 5674 5673 5674 5673 5673 5672 5670 5669 5666 5663 5660 5657 5655 5652 5650 5647 5642 5639 5637 5634 5631 5628 5625 5622 5617 5614 5611 5608 5603 5600 5597 5592 5589 5587 5585 5583 5581 5580 5579 5579 5578 5578
5665 5664 5662 5661 5661 5660 5658 5657 5655 5653 5649 5644 5642 5640 5639 5636 5634 5629 5625 5622 5620 5616 5612 5613 5607 5604 5597 5594 5592 5588 5584 5582 5581 5577 5574 5572 5569 5567 5566 5564 5564 5563 5563
5653 5652 5649 5650 5648 5647 5645 5642 5641 5638 5634 5631 5627 5625 5623 5620 5618 5615 5612 5610 5605 5602 5598 5593 5592 5592 5588 5580 5575 5571 5570 5567 5566 5563 5558 5557 5555 5552 5549 5547 5545 5545 5546
5641 5640 5639 5638 5637 5635 5632 5629 5626 5622 5620 5618 5616 5611 5607 5605 5603 5600 5598 5595 5591 5587 5584 5578 5577 5575 5573 5570 5562 5557 5555 5551 5550 5548 5544 5539 5538 5535 5531 5528 5525 5523 5523
5627 5627 5625 5625 5624 5621 5618 5615 5612 5608 5606 5603 5598 5597 5594 5590 5588 5586 5584 5580 5576 5573 5569 5567 5563 5559 5556 5551 5547 5543 5539 5534 5532 5529 5526 5522 5517 5514 5510 5505 5501 5497 5494
5612 5611 5612 5611 5609 5607 5605 5602 5599 5596 5593 5590 5586 5582 5579 5577 5573 5572 5568 5564 5561 5558 5554 5552 5546 5542 5538 5532 5529 5524 5522 5518 5514 5508 5503 5499 5495 5490 5486 5479 5473 5467 5463
5599 5598 5598 5597 5596 5593 5591 5589 5587 5584 5580 5577 5572 5568 5566 5563 5559 5556 5552 5550 5547 5543 5540 5537 5530 5524 5519 5514 5510 5506 5503 5497 5492 5485 5481 5475 5469 5462 5456 5450 5445 5438 5434
5586 5586 5585 5584 5582 5579 5577 5575 5572 5569 5567 5561 5557 5555 5552 5550 5547 5542 5538 5537 5532 5529 5524 5518 5512 5506 5501 5496 5492 5488 5481 5476 5469 5461 5456 5448 5441 5434 5427 5422 5417 5412 5411
5572 5572 5571 5570 5568 5566 5563 5560 5557 5554 5552 5548 5544 5540 5538 5537 5534 5529 5526 5522 5517 5513 5507 5501 5494 5489 5484 5478 5472 5466 5458 5453 5449 5432 5427 5423 5412 5407 5402 5398 5394 5391 5387
5556 5555 5556 5555 5553 5551 5545 5542 5539 5538 5536 5532 5530 5527 5526 5524 5520 5515 5511 5505 5501 5496 5490 5484 5479 5473 5467 5459 5452 5443 5435 5426 5418 5410 5398 5396 5389 5383 5379 5376 5371 5369 5364
5542 5540 5539 5538 5536 5533 5527 5523 5522 5521 5520 5518 5516 5514 5513 5510 5505 5502 5497 5491 5486 5480 5475 5468 5462 5454 5447 5438 5429 5420 5410 5403 5395 5385 5373 5371 5368 5362 5359 5354 5351 5346 5343
5524 5523 5522 5520 5519 5515 5510 5508 5506 5506 5506 5504 5502 5500 5499 5495 5491 5488 5482 5475 5469 5463 5458 5452 5444 5435 5426 5416 5403 5394 5386 5379 5376 5366 5353 5348 5349 5343 5339 5337 5333 5327 5323
5505 5505 5503 5502 5499 5495 5493 5492 5492 5492 5492 5491 5491 5488 5484 5480 5476 5469 5464 5459 5454 5448 5441 5432 5424 5416 5405 5394 5383 5373 5365 5359 5354 5352 5336 5333 5330 5323 5320 5319 5315 5308 5304
Wind_Speed
30 32 34 33 33 33 34 35 35 36 37 38 38 39 41 43 44 43 45 46 46 47 49 47 46 44 44 45 44 44 45 48 50 49 46 42 41 39 38 38 36 34 34
36 36 36 37 36 37 37 38 38 38 40 40 41 42 43 45 46 47 47 47 48 49 49 46 44 44 44 46 48 49 50 50 49 47 46 45 44 42 41 42 41 40 37
39 40 39 39 38 39 41 40 40 40 39 39 41 43 46 47 48 48 51 50 49 51 50 46 44 45 46 47 49 50 51 51 51 51 50 48 48 48 47 47 47 46 45
42 43 42 41 42 41 40 41 42 42 42 42 43 45 47 49 50 50 52 52 53 51 49 49 45 45 46 46 47 48 50 53 54 54 53 51 52 52 52 52 52 53 52
43 44 43 43 44 44 43 42 42 43 43 44 46 46 48 49 51 52 53 53 53 52 53 49 47 45 44 44 46 47 51 54 56 58 59 57 54 55 55 54 55 56 57
43 44 43 44 45 45 45 44 43 43 44 46 46 47 49 51 51 52 51 51 52 53 51 49 45 42 40 40 44 44 50 55 59 60 57 55 54 53 53 54 55 56 56
42 43 44 46 45 45 45 44 43 44 46 47 47 48 51 51 51 51 52 51 51 48 46 43 42 40 40 48 44 44 47 55 57 53 52 50 50 50 50 51 53 54 55
42 44 44 44 43 43 44 46 47 46 47 47 48 50 51 52 52 53 51 48 46 45 44 42 41 39 44 45 43 46 49 51 51 50 54 57 57 56 57 56 52 52 51
43 42 43 42 43 45 47 47 48 47 47 49 51 52 54 55 53 50 48 47 44 44 42 41 39 43 48 48 48 48 48 50 52 53 57 56 54 52 50 49 50 51 50
44 44 45 45 45 46 47 47 47 48 49 51 53 54 56 56 56 54 49 47 46 44 43 44 43 43 47 49 48 48 51 51 51 55 55 47 44 42 43 46 49 52 52
45 45 47 46 45 45 47 49 50 51 52 54 56 57 58 58 49 52 51 45 47 45 46 47 45 46 51 49 46 49 52 51 53 52 47 43 41 39 37 37 41 47 51
48 48 50 50 49 50 51 52 53 55 56 58 58 60 58 51 48 47 48 47 47 47 47 47 47 49 50 50 50 52 53 53 55 48 47 47 45 41 38 36 36 38 41
52 53 54 54 55 55 56 56 57 59 61 61 63 60 56 46 45 48 52 50 50 50 48 51 50 52 51 50 51 53 53 52 51 46 44 46 44 43 41 37 36 38 40
58 58 59 58 59 59 60 61 62 64 65 65 65 55 44 45 46 51 52 52 53 51 50 50 52 53 52 54 54 53 54 50 47 44 44 43 42 43 43 45 42 40 40
60 61 62 67 65 64 64 66 65 64 66 67 54 47 46 47 50 52 53 52 51 50 51 53 51 51 54 56 56 56 53 47 45 43 45 47 48 49 49 48 48 48 49
65 63 64 63 63 63 65 64 65 68 70 62 52 49 50 48 51 52 50 51 51 53 57 55 51 51 55 58 59 58 55 50 50 50 51 53 54 55 54 54 55 54 54
64 68 69 68 66 68 69 69 73 70 66 58 61 61 49 51 51 50 49 50 53 54 52 52 52 54 58 60 60 59 58 56 55 56 57 59 59 59 59 59 61 63 62
67 67 68 67 66 66 70 67 69 66 62 58 59 50 50 50 48 50 52 51 50 49 51 51 56 58 61 63 61 59 61 61 61 62 64 64 63 62 63 66 67 69 72
66 65 63 62 59 63 65 68 66 63 61 63 55 50 49 49 49 51 49 47 48 51 53 57 60 63 65 64 61 61 60 62 65 68 67 67 67 68 70 71 73 75 77
67 66 66 65 64 63 58 62 65 67 68 63 50 51 51 49 50 46 46 49 51 55 56 63 65 67 66 63 63 60 61 67 69 70 69 71 72 73 74 75 74 70 69
59 60 58 58 62 65 64 61 68 72 71 54 55 51 51 47 42 46 49 51 53 58 66 68 68 66 63 64 62 64 67 71 71 73 73 75 74 75 74 69 66 65 61
51 53 52 53 60 64 65 68 74 61 60 53 53 53 45 43 47 50 50 53 58 64 68 66 64 64 65 64 65 69 71 74 72 77 78 75 71 69 66 65 63 59 59
53 51 56 56 62 66 74 76 66 56 56 55 53 47 42 47 51 47 53 57 61 63 65 63 64 66 67 68 69 71 74 75 77 76 75 69 64 64 64 62 59 57 59
57 54 56 61 63 67 68 66 63 57 58 54 44 39 45 49 47 50 55 59 63 62 61 64 64 67 71 73 73 74 75 75 72 68 69 63 59 60 57 55 52 54 55
55 58 61 67 70 67 68 63 55 50 47 40 34 41 45 46 50 56 58 62 62 61 62 64 68 72 74 75 74 74 72 70 62 60 61 57 53 52 51 48 47 49 53
57 56 60 62 68 65 59 50 41 42 37 32 38 43 47 52 54 56 58 60 61 63 65 67 71 74 75 73 70 68 65 60 55 50 58 58 57 58 54 51 50 53 54
Wind_Direction
266 268 270 271 272 271 268 269 271 271 273 275 278 280 283 286 289 293 298 300 302 303 305 305 303 302 299 295 292 288 287 285 284 284 285 285 285 284 279 279 273 274 279
265 266 268 270 273 274 274 274 274 276 275 275 278 281 283 286 289 293 297 300 301 304 307 303 302 301 300 300 297 293 290 289 288 288 287 287 282 279 274 272 269 264 262
266 267 267 269 270 272 274 276 277 277 277 277 279 282 285 287 290 295 297 300 302 303 306 303 303 303 303 301 299 298 296 295 293 290 286 282 278 271 265 263 262 259 258
266 266 267 268 270 270 272 273 274 276 277 279 282 283 284 287 292 297 299 302 303 302 308 305 305 304 303 302 301 299 298 297 293 289 284 278 273 268 264 259 257 257 254
268 268 268 268 269 271 272 272 273 275 278 280 282 283 285 289 295 298 303 304 304 305 307 306 305 305 304 303 302 301 299 295 291 288 285 280 273 269 266 262 258 256 256
273 270 270 269 269 273 275 276 277 279 279 281 283 284 287 292 297 300 302 304 305 308 309 308 307 304 303 304 309 307 301 293 291 290 285 280 277 274 271 269 264 260 257
273 271 269 269 273 275 276 277 278 279 280 281 282 284 288 293 297 298 301 303 305 307 306 305 306 303 303 310 307 305 306 297 293 293 293 290 285 280 279 276 270 264 259
272 271 271 273 274 274 274 276 278 279 280 281 283 285 288 294 299 298 300 303 302 301 301 302 305 306 307 309 301 301 299 298 295 293 291 291 289 285 283 280 274 267 261
272 274 273 273 272 272 275 277 278 279 279 281 284 287 289 295 297 299 300 301 295 294 296 299 301 304 308 304 297 297 297 296 295 294 296 294 289 285 281 275 270 266 261
271 273 273 273 274 275 277 277 278 280 281 283 287 288 291 295 296 296 298 295 290 289 293 297 297 298 302 303 293 294 299 298 299 300 300 297 295 288 282 275 270 266 261
269 273 274 274 275 276 277 278 280 282 284 286 288 290 293 294 293 298 297 291 288 289 292 292 295 297 300 298 294 301 299 301 303 302 300 296 296 295 295 286 275 268 263
271 274 274 274 275 276 278 278 279 283 286 286 289 290 289 288 295 295 295 292 289 287 290 292 297 299 297 294 299 300 298 299 300 300 298 296 294 290 289 292 290 282 270
268 271 273 273 274 275 277 279 282 284 286 288 285 283 280 288 292 295 293 288 286 287 292 295 297 298 295 298 300 298 297 295 295 294 293 293 294 291 287 287 289 286 282
266 271 274 276 276 278 280 282 284 286 288 283 278 279 290 291 291 291 289 287 287 290 295 297 298 297 298 300 299 296 293 289 287 288 289 291 294 293 293 287 283 284 283
267 271 274 278 278 279 280 283 283 287 281 275 269 290 294 289 286 289 287 286 287 290 293 295 293 296 297 298 297 292 285 283 284 285 288 291 293 293 292 290 287 281 278
270 271 273 278 280 280 282 281 287 283 274 267 275 290 291 282 284 286 286 286 290 291 293 291 294 294 295 295 293 289 283 282 282 284 286 289 290 290 288 286 286 282 275
270 272 274 275 278 280 283 288 288 274 269 271 282 283 281 282 282 284 285 289 293 292 289 294 294 295 296 295 292 287 283 282 284 286 287 287 287 285 286 285 284 282 277
267 271 273 279 282 282 283 286 279 264 268 279 278 278 277 278 280 284 288 293 292 289 292 293 295 297 296 293 289 286 281 283 286 288 289 287 286 286 286 285 283 281 278
271 273 277 278 279 282 283 279 267 266 275 277 272 274 274 277 283 286 290 289 289 291 293 293 294 294 294 293 290 288 285 287 289 289 288 288 288 288 287 285 282 277 273
269 272 275 279 280 279 280 277 268 272 270 275 270 269 277 282 284 287 289 290 291 294 296 297 297 294 293 292 291 289 290 292 293 291 290 290 290 289 286 283 279 277 273
269 272 276 278 281 283 286 284 275 275 272 268 268 277 280 283 284 289 293 294 298 298 296 295 294 293 293 293 293 295 297 295 294 292 291 291 289 286 284 283 282 279 274
278 269 273 272 273 276 280 277 269 278 271 273 274 278 280 276 284 290 295 299 299 295 295 295 294 294 294 294 296 297 297 296 294 295 293 290 287 286 284 283 282 278 272
279 276 274 276 272 272 267 267 270 274 269 272 274 277 275 277 283 290 296 299 296 294 295 295 296 295 295 296 297 298 298 299 298 294 294 293 290 287 284 285 282 277 272
278 275 275 273 274 275 273 272 270 269 270 276 272 274 278 283 290 297 297 297 296 296 297 298 297 298 299 299 299 300 301 299 298 297 295 295 291 290 288 286 283 279 274
269 266 263 264 267 269 270 270 269 270 272 266 276 280 283 292 299 302 300 298 297 297 298 298 300 301 300 301 304 303 300 299 299 298 297 298 297 296 293 290 285 280 277
260 262 262 258 260 261 265 267 269 266 263 273 284 291 296 298 301 299 299 299 299 299 300 300 301 302 304 306 304 301 300 300 301 302 299 300 300 298 293 291 288 285 280